"Pseudo-MPEC" for hMBt003

Created 2018 Dec 7 10:18:31 UT using Find_Orb

Click here for an explanation of pseudo-MPECs

 
 Astrometry: 
     hMBt003  C2018 11 29k*qAstrometryb%[-vtChiJ+Doredacted;,;MHPR'KDBHZa/KR9J43
     hMBt003  C2018 11 29r1!nclick`y6OIuM(ik*?weDA.FhereUIU[UI1IACK6)J2s_l^(]J43
     hMBt003  C2018 11 295-FVomfrHGMK2wm/H]8Lc$E?dkWlOyHdaotVb:)d;VforjNS]]UtJ43
     hMBt003  C2018 11 297T'Wrexplanationr4?GhgeO\:_xTh=pE-DRD[.r15/f@85/W6wEJ43

Station data:
(J43) Oukaïmeden Observatory, Marrakech  (N31.206440 W7.866460)  Morocco.
   Observer C. Rinner. Measurers C. Rinner, M. Ory. 0.5-m f/3 reflector + CCD.

Orbital elements:  hMBt003
   Perihelion 2018 Jun 3.541108 +/- 205 TT = 12:59:11 (JD 2458273.041108)
Epoch 2018 Nov 30.0 TT = JDT 2458452.5   Earth MOID: 0.0059   AutoNEOCP
M 142.26563866 +/- 100              (J2000 ecliptic)
n   0.79274778 +/- 0.284            Peri.  339.31989 +/- 55
a   1.15623476 +/- 0.276            Node   293.92222 +/- 52
e   0.1182077 +/- 0.208             Incl.    1.15454 +/- 38
P   1.24/454.11d           H 22.6   G  0.15   U 11.9  SR
q 1.01955883 +/- 0.623    Q 1.29291070 +/- 1.59
From 4 observations 2018 Nov. 29 (37.2 min); mean residual 0".58
Residuals in arcseconds: 
181129 J43  .87-  .13+    181129 J43  .48+  .16-    
181129 J43  1.1+  .12-    181129 J43  .68-  .14+    

Ephemerides (geocentric):
Date (UTC) HH   RA              Dec         delta   r     elong  mag " sig PA
---- -- -- --  -------------   -----------  ------ ------ -----  --- ---- ---
2018 12 07 10  02 46 33.716   +19 31 00.64  .32415 1.2762 150.0 21.7 3273 168
2018 12 07 11  02 46 31.308   +19 30 38.33  .32432 1.2763 149.9 21.7 3293 168
2018 12 07 12  02 46 28.908   +19 30 16.07  .32449 1.2763 149.9 21.7 3313 168
2018 12 07 13  02 46 26.518   +19 29 53.84  .32466 1.2763 149.8 21.7 3333 168
2018 12 07 14  02 46 24.137   +19 29 31.65  .32483 1.2764 149.8 21.7 3353 168
2018 12 07 15  02 46 21.765   +19 29 09.51  .32500 1.2764 149.7 21.8 3373 168
2018 12 07 16  02 46 19.402   +19 28 47.40  .32516 1.2764 149.7 21.8 3393 168
2018 12 07 17  02 46 17.048   +19 28 25.33  .32533 1.2765 149.6 21.8 3413 168
2018 12 07 18  02 46 14.703   +19 28 03.30  .32550 1.2765 149.6 21.8 3434 168
2018 12 07 19  02 46 12.367   +19 27 41.32  .32567 1.2765 149.5 21.8 3454 168
2018 12 07 20  02 46 10.040   +19 27 19.37  .32584 1.2766 149.5 21.8 3474 168
2018 12 07 21  02 46 07.722   +19 26 57.46  .32601 1.2766 149.4 21.8 3495 168
2018 12 07 22  02 46 05.413   +19 26 35.59  .32618 1.2766 149.4 21.8 3516 167
2018 12 07 23  02 46 03.113   +19 26 13.76  .32635 1.2767 149.3 21.8 3536 167
2018 12 08 00  02 46 00.822   +19 25 51.98  .32652 1.2767 149.2 21.8 3557 167
2018 12 08 01  02 45 58.540   +19 25 30.23  .32669 1.2767 149.2 21.8 3578 167
2018 12 08 02  02 45 56.268   +19 25 08.52  .32686 1.2768 149.1 21.8 3599 167
2018 12 08 03  02 45 54.004   +19 24 46.85  .32703 1.2768 149.1 21.8 3620 167
2018 12 08 04  02 45 51.749   +19 24 25.23  .32720 1.2768 149.0 21.8 3641 167
2018 12 08 05  02 45 49.503   +19 24 03.64  .32737 1.2769 149.0 21.8 3662 167
2018 12 08 06  02 45 47.266   +19 23 42.09  .32754 1.2769 148.9 21.8 3684 167
2018 12 08 07  02 45 45.039   +19 23 20.59  .32772 1.2769 148.9 21.8 3705 167
2018 12 08 08  02 45 42.820   +19 22 59.12  .32789 1.2770 148.8 21.8 3727 167
2018 12 08 09  02 45 40.610   +19 22 37.69  .32806 1.2770 148.8 21.8 3748 166
2018 12 08 10  02 45 38.410   +19 22 16.31  .32823 1.2770 148.7 21.8 3770 166
2018 12 08 11  02 45 36.218   +19 21 54.96  .32840 1.2771 148.7 21.8 3792 166
2018 12 08 12  02 45 34.035   +19 21 33.66  .32857 1.2771 148.6 21.8 3814 166
2018 12 08 13  02 45 31.861   +19 21 12.40  .32875 1.2771 148.6 21.8 3836 166
2018 12 08 14  02 45 29.697   +19 20 51.17  .32892 1.2772 148.5 21.8 3858 166
2018 12 08 15  02 45 27.541   +19 20 29.99  .32909 1.2772 148.5 21.8 3881 166
2018 12 08 16  02 45 25.394   +19 20 08.85  .32927 1.2772 148.4 21.8 3903 166
2018 12 08 17  02 45 23.256   +19 19 47.75  .32944 1.2773 148.4 21.8 3926 166
2018 12 08 18  02 45 21.127   +19 19 26.69  .32961 1.2773 148.3 21.8 3949 166
2018 12 08 19  02 45 19.008   +19 19 05.67  .32979 1.2773 148.3 21.8 3971 165
2018 12 08 20  02 45 16.897   +19 18 44.69  .32996 1.2774 148.2 21.8 3994 165
2018 12 08 21  02 45 14.795   +19 18 23.75  .33013 1.2774 148.2 21.8 4017 165
2018 12 08 22  02 45 12.702   +19 18 02.86  .33031 1.2774 148.1 21.8 4041 165
2018 12 08 23  02 45 10.618   +19 17 42.00  .33048 1.2775 148.1 21.8 4064 165
2018 12 09 00  02 45 08.543   +19 17 21.18  .33065 1.2775 148.0 21.8 4088 165
2018 12 09 01  02 45 06.477   +19 17 00.41  .33083 1.2775 148.0 21.8 4111 165
2018 12 09 02  02 45 04.420   +19 16 39.68  .33100 1.2776 147.9 21.8 4135 165
2018 12 09 03  02 45 02.372   +19 16 18.99  .33118 1.2776 147.9 21.8 4159 165
2018 12 09 04  02 45 00.333   +19 15 58.33  .33135 1.2776 147.8 21.8 4183 165
2018 12 09 05  02 44 58.302   +19 15 37.73  .33153 1.2777 147.8 21.8 4207 164
2018 12 09 06  02 44 56.281   +19 15 17.16  .33170 1.2777 147.7 21.8 4232 164
2018 12 09 07  02 44 54.269   +19 14 56.63  .33188 1.2777 147.6 21.8 4256 164
2018 12 09 08  02 44 52.265   +19 14 36.14  .33206 1.2778 147.6 21.8 4281 164
2018 12 09 09  02 44 50.271   +19 14 15.70  .33223 1.2778 147.5 21.8 4306 164